Vertical_Velocity
11 8 23 -11 -24 0 -26 -4 1 30 -8 6 -1 7 0 -1 4 5 1 1 -0 1 0 2 2 2 -1 2 4 1 1 1 1 3 -0 -2 2 2 2 3 -2 1 -1
18 1 -13 1 -11 -3 -8 -11 4 4 -1 10 10 -2 -0 10 6 7 5 -4 1 -1 -0 1 -1 0 -0 0 1 -0 -0 2 2 -0 6 -1 2 -0 -0 1 7 4 -3
-5 2 2 -7 10 14 -15 -18 -12 3 -3 1 4 3 3 18 0 -3 9 -2 -2 -1 -1 1 -1 1 1 -1 1 -1 -1 -0 -4 3 -0 -4 -1 1 0 1 0 -0 3
9 8 2 8 12 -15 -10 10 -4 -1 7 8 4 -5 -12 -11 4 13 2 -0 2 -0 1 2 1 2 1 -1 -3 -2 -3 -1 -3 4 -2 -2 -0 -3 -1 -0 -1 -1 0
-4 -2 -1 3 8 -3 -1 1 -1 6 6 8 6 8 4 1 -1 -7 7 3 1 1 1 -1 -2 -0 -1 1 0 -3 -3 5 -2 -2 3 -14 -2 0 2 -2 1 4 -3
9 2 12 -6 -8 2 1 5 13 -7 -1 2 3 2 2 3 6 6 2 0 -0 2 2 -1 0 3 7 3 2 5 5 1 10 3 5 -10 -29 0 2 2 -5 0 -1
7 4 0 1 -3 -4 5 3 8 11 -2 22 9 -7 -6 -14 -15 12 5 -4 -4 -3 -5 -3 -1 -3 2 4 3 0 4 5 4 2 -0 8 1 -32 0 11 3 -2 3
19 1 -5 12 2 2 -3 5 -3 21 35 4 9 6 6 -1 -2 -2 26 15 6 6 3 2 3 6 9 5 -3 -3 -1 -3 -4 5 -0 1 8 15 -10 5 2 3 -2
-8 9 1 10 -10 -3 -0 6 1 5 1 8 2 2 5 4 -9 -8 -9 -1 13 11 3 9 9 9 13 5 -5 2 1 2 -1 3 1 1 9 -7 -2 4 7 4 -1
0 2 -9 -3 6 1 2 2 -2 -5 -8 20 9 2 4 1 -6 -11 -6 -5 6 9 8 12 5 5 4 -1 3 1 3 4 -1 13 -1 8 -3 -3 7 6 1 1 -0
-1 5 7 -3 4 4 4 -2 -1 2 2 0 4 -4 1 13 10 7 4 5 -2 -3 -2 -12 -7 -2 1 2 -4 1 -5 0 1 8 9 2 3 -7 1 1 2 -1 -1
5 3 1 4 4 1 3 -1 -2 -3 3 1 -3 -10 -5 -1 -5 -4 2 1 -3 -5 7 2 -5 2 -1 2 -1 4 2 -11 4 5 -6 -14 -2 1 2 2 2 -1 1
-0 4 0 -1 2 1 -3 3 3 2 3 1 -3 -2 1 2 4 -1 -1 -8 4 -5 -2 5 13 9 6 1 6 9 -6 -8 -7 -1 4 8 -6 -1 -1 1 -2 -2 -0
1 2 1 2 1 0 -5 1 1 -1 2 7 13 11 22 -16 -9 6 10 7 21 14 7 -1 -1 -4 -2 -1 -1 -1 6 -4 -2 -0 3 3 6 2 2 1 0 1 2
-1 1 -0 1 2 2 2 -0 1 -0 2 1 -0 -2 2 3 -1 -12 -6 -7 -5 -4 -4 -1 8 2 -7 2 12 -0 -6 0 -2 4 -0 2 2 1 0 2 3 -3 1
2 -3 -1 -0 2 0 -0 2 -2 2 2 3 2 -2 6 1 4 7 -1 -4 2 -1 0 6 6 7 5 2 1 -2 -0 -2 2 2 1 -2 2 -6 4 3 -3 3 -3
-0 0 1 1 -1 -5 0 2 2 -0 0 -4 -0 2 2 1 6 6 -4 2 10 10 5 2 1 1 -2 -1 -1 1 0 -1 2 1 -3 -1 -1 2 -3 1 1 5 2
-2 -1 3 2 2 3 4 -2 -0 1 0 -0 1 2 0 1 -0 2 2 -2 -4 -4 -2 -0 -2 -0 1 1 1 2 3 3 1 1 2 1 3 3 1 3 -1 -1 -2
-0 -3 -3 -1 1 1 -1 0 1 -1 1 3 1 -3 -0 1 0 1 -2 -3 -5 -3 3 3 2 -2 -0 1 1 1 1 1 3 0 0 -4 2 2 -2 -1 -4 -0 -2
0 2 1 -2 -1 -0 -1 -3 -3 -1 0 -3 -2 4 -1 -1 0 2 4 2 2 2 -0 -2 4 -2 0 2 3 3 4 2 1 0 -1 0 -1 -0 -2 -1 -1 0 -0
-2 1 0 -0 -2 -5 -6 -4 -2 -3 -2 -1 -3 -4 -2 1 4 0 1 2 3 3 1 -2 -1 2 1 -0 2 3 -0 -0 -1 2 2 4 2 -0 0 2 -0 1 1
1 -0 -2 2 1 3 1 -1 -2 -2 -4 -3 -1 2 2 -1 -4 -3 0 3 0 2 -1 0 1 1 -2 0 2 1 3 1 -1 -0 2 -0 -4 2 2 -2 -2 1 1
-4 -0 -1 1 1 1 2 2 3 2 1 -1 -5 -6 -7 -7 -2 0 -2 -2 -2 -2 -0 -0 2 1 2 2 -0 2 1 -0 -1 -0 0 -0 -2 -0 0 -1 0 -2 1
1 -0 -1 -1 -0 -0 1 0 1 3 2 -1 -1 -0 1 -0 -2 -4 -2 -2 -1 -2 -2 -2 -3 5 1 -1 1 1 -1 0 -2 -1 -3 4 3 2 2 1 0 2 -2
-1 1 2 -0 1 -1 -2 -2 -4 -4 0 0 -0 -2 -2 -1 3 3 -1 1 -1 0 0 -2 2 -2 -2 1 8 3 1 4 4 6 2 -1 -1 -1 0 -3 -0 -1 1
0 -1 1 2 2 1 -2 -3 -3 -1 -5 -2 -2 -4 -1 -2 -5 -3 3 3 1 -2 -3 -2 -3 -3 -5 1 4 3 5 3 4 1 -1 0 -0 -1 2 -3 1 0 -2
Height
1401 1405 1407 1414 1426 1435 1436 1439 1438 1438 1448 1456 1459 1466 1471 1478 1483 1488 1494 1500 1508 1514 1519 1525 1530 1533 1536 1540 1544 1547 1549 1551 1553 1556 1557 1559 1562 1563 1562 1562 1564 1563 1565
1388 1395 1405 1410 1423 1432 1430 1435 1440 1443 1448 1456 1458 1462 1468 1471 1481 1486 1493 1499 1506 1512 1518 1522 1527 1530 1535 1538 1540 1544 1546 1549 1551 1553 1554 1557 1560 1561 1560 1561 1561 1561 1562
1397 1401 1407 1415 1421 1416 1424 1434 1435 1444 1449 1454 1457 1461 1467 1469 1476 1486 1491 1498 1504 1511 1516 1520 1525 1529 1532 1535 1538 1541 1544 1546 1548 1550 1553 1556 1556 1557 1557 1558 1558 1559 1559
1400 1402 1408 1410 1410 1413 1428 1431 1436 1443 1446 1449 1452 1455 1460 1468 1475 1481 1490 1495 1502 1508 1514 1518 1522 1527 1529 1533 1535 1538 1541 1543 1543 1546 1549 1553 1555 1556 1556 1556 1557 1557 1557
1398 1406 1412 1413 1417 1419 1428 1434 1436 1438 1443 1445 1449 1454 1457 1465 1474 1480 1488 1492 1500 1506 1511 1515 1519 1523 1526 1529 1531 1533 1536 1538 1540 1540 1544 1549 1552 1555 1554 1554 1554 1553 1553
1404 1408 1413 1413 1419 1427 1431 1434 1433 1434 1437 1442 1448 1451 1455 1462 1469 1477 1484 1489 1496 1502 1506 1512 1516 1520 1523 1525 1527 1530 1534 1535 1535 1535 1539 1536 1544 1550 1552 1551 1551 1551 1549
1405 1407 1411 1420 1424 1428 1429 1429 1430 1429 1432 1433 1441 1449 1455 1461 1469 1478 1481 1483 1491 1497 1503 1508 1512 1516 1519 1522 1525 1528 1531 1533 1533 1533 1535 1535 1532 1537 1544 1546 1544 1545 1545
1411 1415 1417 1425 1426 1429 1431 1432 1430 1426 1423 1434 1440 1445 1453 1458 1464 1474 1480 1484 1489 1492 1498 1503 1508 1512 1516 1519 1523 1525 1527 1529 1529 1530 1529 1533 1530 1530 1533 1539 1540 1539 1541
1420 1417 1420 1423 1428 1430 1431 1432 1432 1433 1433 1436 1442 1450 1453 1457 1461 1472 1477 1484 1490 1495 1498 1503 1506 1508 1511 1514 1516 1520 1521 1524 1525 1525 1525 1527 1526 1527 1526 1531 1533 1534 1534
1429 1429 1427 1427 1431 1432 1431 1433 1435 1437 1437 1439 1444 1450 1453 1458 1463 1471 1477 1482 1488 1491 1495 1497 1501 1503 1507 1510 1512 1513 1516 1518 1519 1520 1519 1522 1518 1521 1523 1525 1527 1529 1531
1434 1433 1433 1433 1434 1432 1432 1435 1436 1440 1443 1445 1448 1452 1455 1458 1463 1468 1473 1478 1483 1488 1490 1495 1498 1501 1503 1504 1506 1507 1508 1511 1512 1511 1513 1512 1514 1517 1520 1521 1523 1525 1527
1442 1439 1437 1437 1436 1436 1436 1437 1437 1439 1441 1446 1449 1452 1455 1458 1462 1465 1469 1475 1479 1484 1488 1490 1493 1496 1497 1498 1499 1499 1502 1503 1503 1503 1507 1506 1508 1511 1515 1518 1519 1521 1523
1447 1444 1442 1439 1437 1436 1439 1440 1442 1442 1443 1445 1448 1451 1455 1459 1461 1464 1466 1469 1474 1477 1480 1483 1485 1489 1492 1492 1493 1493 1494 1497 1498 1499 1501 1503 1505 1508 1510 1512 1514 1517 1519
1456 1452 1447 1444 1444 1443 1444 1445 1444 1446 1447 1449 1451 1452 1452 1461 1460 1461 1463 1465 1465 1466 1469 1473 1474 1481 1484 1485 1487 1488 1490 1490 1492 1494 1497 1499 1501 1504 1506 1507 1509 1511 1512
1460 1458 1455 1454 1452 1451 1448 1447 1448 1450 1449 1450 1451 1454 1457 1459 1460 1460 1462 1463 1465 1465 1468 1469 1472 1474 1477 1478 1478 1481 1484 1485 1488 1490 1493 1496 1499 1502 1504 1506 1506 1507 1508
1466 1466 1462 1461 1457 1455 1454 1454 1453 1453 1450 1451 1452 1457 1459 1459 1460 1461 1462 1463 1464 1464 1467 1468 1469 1470 1471 1473 1475 1477 1479 1481 1483 1486 1489 1493 1496 1499 1502 1502 1501 1503 1504
1468 1466 1466 1464 1462 1460 1459 1458 1456 1454 1452 1453 1455 1456 1457 1458 1459 1459 1460 1461 1460 1462 1464 1465 1466 1466 1468 1471 1472 1474 1476 1478 1480 1482 1486 1490 1493 1495 1496 1497 1498 1498 1499
1471 1469 1466 1464 1463 1461 1460 1459 1458 1457 1457 1456 1456 1456 1457 1458 1459 1460 1460 1460 1463 1463 1463 1462 1462 1463 1466 1468 1470 1471 1472 1474 1477 1479 1483 1487 1489 1490 1491 1492 1492 1493 1494
1470 1468 1466 1465 1464 1462 1460 1460 1458 1458 1458 1458 1457 1458 1458 1459 1459 1459 1458 1459 1459 1460 1460 1460 1459 1461 1464 1466 1466 1468 1469 1471 1473 1476 1479 1483 1485 1486 1487 1489 1491 1490 1490
1469 1468 1466 1464 1462 1461 1461 1460 1459 1459 1458 1456 1457 1457 1457 1459 1458 1457 1457 1455 1455 1456 1457 1457 1457 1458 1461 1462 1463 1464 1465 1467 1471 1473 1477 1478 1481 1483 1482 1485 1486 1484 1485
1469 1467 1466 1465 1463 1462 1460 1459 1458 1457 1458 1456 1456 1455 1454 1454 1453 1452 1453 1452 1451 1451 1451 1452 1454 1456 1457 1458 1459 1460 1462 1464 1468 1471 1473 1475 1476 1478 1479 1480 1479 1480 1480
1466 1466 1465 1465 1464 1463 1462 1460 1459 1457 1455 1454 1453 1452 1451 1450 1449 1449 1449 1447 1446 1447 1446 1448 1449 1450 1452 1454 1454 1457 1458 1461 1463 1467 1469 1470 1472 1475 1473 1473 1475 1475 1475
1465 1464 1464 1463 1463 1463 1461 1460 1459 1457 1456 1453 1452 1450 1447 1447 1445 1442 1442 1442 1443 1443 1443 1444 1444 1445 1447 1449 1451 1452 1455 1457 1459 1461 1464 1464 1467 1468 1469 1470 1469 1470 1471
1463 1462 1461 1462 1462 1461 1460 1459 1456 1455 1453 1452 1450 1447 1444 1441 1440 1438 1438 1438 1438 1439 1439 1439 1440 1441 1441 1445 1447 1448 1448 1451 1453 1454 1458 1459 1461 1464 1464 1465 1466 1465 1465
1458 1459 1458 1458 1458 1458 1458 1457 1455 1453 1451 1449 1447 1446 1444 1442 1440 1438 1437 1435 1434 1434 1432 1433 1433 1434 1437 1439 1441 1443 1444 1445 1445 1449 1451 1451 1452 1457 1458 1459 1462 1460 1462
1455 1455 1455 1455 1455 1454 1454 1454 1453 1451 1449 1447 1446 1444 1442 1440 1438 1437 1434 1432 1431 1429 1428 1428 1428 1429 1431 1433 1433 1435 1438 1438 1440 1441 1441 1442 1445 1449 1453 1454 1456 1455 1456